Wind_Speed
39 38 33 27 27 29 31 33 35 33 33 35 37 37 36 33 30 28 26 26 26 29 34 39 30 29 28 30 34 34 33 33 31 28 25 22 20 17 15 13 11 10 8
35 34 30 29 31 29 26 30 37 36 33 33 35 38 36 35 33 31 29 29 29 27 30 26 28 27 29 32 34 35 35 35 34 32 31 26 23 23 21 18 16 15 12
31 28 25 23 22 24 24 27 35 37 32 30 34 38 37 37 37 36 34 32 30 29 30 32 29 31 29 31 36 37 37 39 39 35 24 16 13 25 25 22 21 20 17
9 7 9 13 17 20 22 24 29 32 31 30 31 35 37 40 38 37 36 35 34 33 32 35 33 30 36 30 36 38 38 40 42 37 33 20 17 19 15 28 27 26 23
18 10 4 1 5 11 15 21 25 27 28 28 28 30 34 36 38 39 38 38 36 36 38 37 40 38 39 39 31 41 42 43 40 40 38 31 19 19 13 10 26 34 27
26 16 12 8 4 5 9 14 20 23 25 25 26 28 30 35 40 41 42 42 40 37 41 45 48 40 44 46 36 42 46 45 41 41 40 38 28 21 13 11 5 19 28
35 28 20 14 9 4 5 10 13 16 18 20 22 24 28 34 37 42 44 44 45 44 45 50 51 44 43 45 42 41 50 45 44 42 41 39 35 26 12 8 2 1 12
38 38 28 15 9 5 1 4 10 8 9 12 17 21 25 28 34 42 47 50 46 46 48 51 53 48 48 43 41 40 46 45 43 41 41 40 37 33 22 11 4 3 3
35 37 36 27 13 6 3 2 3 1 5 8 10 13 18 23 30 31 32 35 41 49 42 54 52 51 53 43 41 37 45 47 43 41 40 39 37 37 36 30 24 17 9
36 35 37 34 23 13 4 2 4 6 5 7 9 11 18 19 18 18 27 35 41 39 45 45 51 50 48 35 41 36 43 45 40 39 38 37 35 35 35 34 29 23 19
35 33 32 33 31 20 12 5 2 5 6 5 7 11 16 17 12 19 28 35 28 30 39 42 39 43 39 40 36 35 35 40 40 38 37 37 35 34 34 33 31 28 25
33 33 30 31 32 29 22 14 6 1 5 5 5 8 11 16 15 15 28 32 27 29 32 35 33 36 39 39 34 31 33 35 37 36 36 37 37 36 32 31 30 29 27
35 35 32 30 31 31 27 21 13 6 3 5 3 4 8 13 18 14 21 20 25 29 29 29 31 32 34 31 30 29 29 31 32 34 34 34 35 35 33 31 31 30 28
30 33 33 30 29 30 30 25 19 10 3 6 6 5 6 10 16 19 14 13 15 16 19 20 23 27 29 28 27 27 28 29 30 30 31 32 32 32 31 30 30 30 29
36 35 34 31 28 28 29 26 22 18 5 2 5 5 6 9 14 26 22 16 14 16 15 19 22 22 24 25 26 27 28 28 28 28 28 28 28 27 26 27 27 28 28
33 36 34 32 30 28 28 28 22 22 13 4 6 6 7 8 11 14 21 12 14 6 20 25 22 24 25 25 24 25 27 27 26 26 25 25 25 25 26 26 27 27 28
34 41 39 36 33 29 27 28 22 20 14 8 3 4 6 7 9 13 21 22 20 14 11 15 22 30 26 21 19 17 19 24 26 26 25 24 23 23 24 23 24 28 31
45 43 38 35 32 30 25 24 18 18 13 5 2 3 4 7 8 10 16 24 18 20 15 13 6 7 19 14 21 20 14 14 24 26 26 23 21 23 23 24 24 23 24
43 43 36 33 32 29 23 20 14 13 14 2 1 3 1 6 7 12 11 16 22 20 19 27 17 13 21 21 17 18 16 20 18 18 19 17 16 15 16 18 19 21 24
41 39 32 31 30 26 21 18 12 9 12 5 1 2 2 4 5 11 14 13 14 16 16 19 23 25 23 26 26 26 25 23 23 24 27 27 22 24 23 22 18 19 16
37 31 30 29 29 21 20 17 14 6 8 5 2 4 4 1 6 7 12 14 15 12 15 17 15 19 18 19 16 25 28 22 27 28 22 25 22 21 20 18 18 17 16
35 28 25 23 24 18 18 17 16 8 6 5 5 6 6 6 3 6 9 10 13 14 17 14 14 14 14 12 11 12 12 12 13 14 17 21 21 21 21 22 25 22 20
32 25 19 15 11 11 14 16 15 13 9 5 3 9 9 9 10 5 7 11 13 13 16 13 13 16 13 12 10 11 12 12 12 12 13 14 13 14 14 16 17 17 19
31 26 15 13 9 9 12 15 14 15 15 11 5 9 11 11 11 12 11 12 17 19 21 17 15 13 12 11 11 11 11 10 9 8 7 7 7 7 9 11 12 12 14
27 25 20 12 9 12 13 10 13 17 18 16 10 9 11 12 13 14 14 14 15 15 16 14 13 13 12 10 8 8 9 9 8 6 6 5 5 6 5 5 6 8 10
26 26 22 16 10 9 12 12 14 19 22 21 16 15 15 14 13 15 16 14 13 13 12 12 12 12 9 9 10 10 10 8 6 6 6 4 3 3 3 3 4 6 7
Wind_Direction
267 260 261 261 259 260 248 238 227 224 221 220 219 219 219 219 219 219 215 220 232 235 239 228 213 214 213 209 201 195 196 191 191 187 187 186 193 201 209 214 223 229 230
278 264 260 259 262 253 242 236 222 222 221 221 221 222 218 217 221 220 226 228 229 229 231 236 223 216 215 207 197 197 194 201 193 194 186 176 195 207 209 218 228 233 238
278 274 268 262 247 236 238 235 222 217 219 220 221 221 222 222 220 224 226 226 229 231 231 226 225 221 218 213 199 198 202 200 193 197 189 174 196 205 215 218 230 236 235
2 306 261 244 243 241 237 228 221 214 214 217 222 224 226 226 230 232 232 230 231 233 234 225 219 226 213 213 209 206 206 208 198 197 206 201 199 189 215 223 228 235 236
29 32 38 242 237 226 216 209 208 211 212 217 223 226 228 232 235 233 234 236 234 235 237 229 223 215 209 210 218 213 210 215 211 203 204 210 202 204 210 214 227 232 236
38 52 56 39 84 137 183 198 200 204 213 223 230 233 236 236 236 236 235 232 237 240 239 227 221 222 222 220 215 218 216 216 217 213 213 214 210 207 210 223 266 234 234
34 47 47 49 34 64 147 178 193 209 220 228 234 238 241 242 245 244 241 240 244 244 246 224 211 217 219 207 212 219 220 217 220 220 221 221 224 222 230 224 262 316 235
30 37 45 51 61 50 27 184 195 209 231 238 237 240 245 249 250 250 249 252 246 247 227 220 210 211 211 201 210 219 219 219 224 224 225 226 228 228 229 225 256 314 306
17 23 36 45 54 67 51 243 208 214 258 253 257 259 250 254 259 261 251 243 237 223 227 219 210 209 208 205 214 219 218 220 225 228 229 229 234 232 235 245 261 265 276
16 22 27 39 46 44 82 171 225 222 241 242 248 265 247 261 268 259 241 232 227 224 222 216 209 211 210 217 217 214 216 219 225 228 229 229 233 238 242 246 254 257 257
4 15 24 31 41 49 48 64 228 238 239 249 271 276 270 255 252 239 227 223 227 221 221 214 208 212 213 212 214 213 215 220 226 229 230 231 234 237 242 246 251 253 254
359 9 16 22 32 39 45 42 42 84 245 267 260 265 276 249 234 232 215 216 218 213 211 216 218 221 217 212 211 211 217 222 226 229 231 233 235 238 241 245 249 253 255
354 3 7 13 19 26 32 37 34 21 245 255 258 263 267 245 225 213 215 205 210 209 213 221 217 211 210 211 213 216 221 223 227 230 233 234 236 239 241 243 247 250 252
347 352 357 0 6 13 19 27 31 23 2 231 241 247 235 240 200 182 176 161 178 184 195 203 206 205 208 210 214 218 222 225 230 232 234 236 237 238 241 242 247 250 252
345 348 346 348 352 359 9 16 25 24 28 284 224 237 214 213 204 199 184 190 202 202 203 204 202 210 213 215 218 220 221 223 226 230 233 235 237 239 242 244 246 249 252
336 335 335 335 337 344 353 2 13 19 24 3 205 232 219 177 179 205 190 180 184 172 217 216 213 212 215 213 213 218 222 222 225 229 231 233 234 233 237 241 242 245 249
325 320 317 317 321 328 338 347 359 11 15 10 186 211 203 198 192 187 186 189 190 187 167 198 220 223 217 213 215 207 224 227 228 229 230 231 234 236 241 246 248 250 248
320 317 312 307 306 308 319 332 343 3 5 5 36 223 210 202 210 205 202 193 185 187 189 202 184 151 185 181 198 197 202 215 221 224 228 231 229 229 232 243 243 247 251
316 312 306 299 296 295 306 318 324 354 349 329 320 325 263 199 207 208 203 207 206 205 215 195 168 205 196 183 195 195 194 208 208 201 193 216 221 229 240 243 255 259 256
319 315 303 292 279 280 289 298 296 337 345 325 291 304 255 233 231 203 198 197 206 208 188 214 208 213 203 208 206 204 205 204 198 207 212 217 226 228 237 244 244 249 255
324 319 304 287 276 267 269 271 266 277 321 306 200 218 207 128 223 203 199 193 197 184 180 184 188 186 195 195 193 204 220 222 219 239 236 222 223 233 237 239 236 252 260
337 334 317 293 278 263 255 256 242 233 268 311 198 208 211 211 183 164 199 183 205 193 188 187 183 180 186 195 198 190 196 198 207 218 217 222 224 236 233 235 249 249 256
346 347 335 317 301 261 249 252 225 222 214 231 163 220 218 227 231 218 182 173 186 175 176 180 180 175 182 190 194 194 194 206 210 221 223 229 237 241 239 242 245 248 252
355 352 3 343 320 274 262 250 221 215 208 210 173 216 206 209 213 212 208 187 168 172 165 161 159 160 164 171 180 191 196 197 203 211 211 215 228 236 248 243 237 237 241
8 1 355 353 324 301 274 253 219 218 207 198 169 196 188 192 192 174 171 164 157 158 159 160 167 160 155 142 148 159 169 173 173 185 200 195 226 241 237 243 225 226 226
23 16 10 358 340 293 278 240 211 208 209 197 169 186 192 186 170 170 172 163 156 159 162 167 174 157 176 159 147 140 137 143 144 168 169 165 189 176 165 189 201 203 201
Height
1450 1451 1454 1457 1457 1457 1458 1460 1464 1468 1473 1477 1482 1487 1491 1497 1501 1506 1511 1515 1519 1522 1526 1527 1533 1540 1543 1546 1552 1557 1563 1568 1571 1576 1579 1581 1585 1588 1590 1593 1595 1596 1597
1439 1441 1443 1447 1447 1448 1449 1452 1456 1461 1466 1471 1477 1481 1487 1492 1497 1501 1505 1510 1514 1518 1522 1526 1531 1537 1541 1545 1548 1555 1560 1565 1569 1573 1575 1578 1583 1585 1587 1589 1592 1594 1595
1432 1433 1435 1437 1438 1440 1442 1445 1449 1455 1460 1466 1470 1476 1482 1487 1491 1495 1499 1503 1507 1512 1515 1521 1524 1530 1538 1543 1546 1551 1556 1560 1565 1569 1572 1574 1575 1580 1583 1586 1589 1590 1591
1428 1428 1428 1431 1432 1434 1436 1440 1445 1451 1456 1460 1465 1470 1474 1478 1484 1488 1492 1496 1501 1505 1509 1514 1518 1522 1528 1536 1543 1548 1553 1558 1560 1564 1569 1570 1570 1575 1579 1581 1583 1586 1587
1429 1426 1426 1427 1427 1429 1432 1435 1441 1447 1452 1457 1462 1466 1470 1475 1478 1483 1487 1491 1493 1498 1502 1507 1511 1517 1522 1526 1534 1544 1547 1554 1558 1560 1564 1566 1569 1570 1574 1574 1577 1579 1582
1431 1427 1428 1428 1428 1429 1431 1435 1440 1444 1449 1453 1457 1461 1465 1468 1471 1474 1478 1482 1485 1488 1492 1498 1502 1509 1512 1516 1522 1537 1544 1548 1553 1558 1561 1563 1567 1568 1571 1573 1574 1574 1578
1436 1430 1430 1429 1431 1432 1433 1436 1440 1443 1446 1450 1452 1455 1459 1462 1465 1468 1470 1472 1474 1478 1482 1487 1492 1499 1504 1506 1516 1528 1537 1540 1548 1552 1557 1561 1566 1570 1571 1572 1572 1573 1575
1441 1437 1434 1432 1433 1435 1436 1436 1437 1441 1443 1446 1448 1451 1454 1457 1459 1460 1461 1462 1462 1465 1473 1477 1484 1492 1498 1503 1512 1519 1529 1534 1543 1547 1553 1558 1563 1566 1569 1570 1571 1573 1574
1446 1443 1439 1434 1433 1434 1436 1437 1439 1440 1442 1442 1444 1446 1448 1450 1450 1450 1450 1452 1455 1459 1466 1471 1478 1484 1492 1500 1506 1508 1521 1530 1536 1540 1548 1553 1558 1562 1565 1567 1569 1572 1574
1451 1447 1443 1438 1435 1434 1435 1437 1438 1439 1439 1440 1442 1442 1443 1444 1444 1442 1443 1446 1450 1455 1460 1465 1474 1482 1490 1496 1504 1503 1517 1524 1529 1536 1542 1548 1552 1557 1561 1563 1566 1568 1571
1456 1452 1447 1443 1439 1436 1435 1435 1436 1437 1437 1437 1438 1439 1439 1439 1440 1439 1441 1444 1448 1452 1457 1466 1472 1478 1484 1491 1498 1502 1509 1517 1524 1530 1535 1541 1546 1552 1555 1558 1560 1563 1565
1459 1454 1450 1446 1441 1438 1436 1434 1434 1434 1434 1434 1435 1435 1436 1436 1437 1438 1440 1442 1446 1450 1458 1464 1470 1476 1482 1488 1493 1497 1505 1512 1517 1523 1530 1535 1541 1546 1549 1552 1554 1557 1560
1456 1452 1450 1446 1443 1441 1438 1436 1434 1434 1433 1433 1432 1433 1433 1433 1435 1438 1440 1442 1447 1451 1456 1461 1465 1472 1479 1484 1489 1495 1500 1506 1511 1518 1524 1529 1535 1539 1542 1545 1547 1551 1554
1457 1455 1451 1447 1444 1443 1440 1437 1434 1433 1432 1431 1431 1431 1431 1431 1433 1438 1441 1442 1446 1450 1454 1457 1464 1471 1476 1481 1484 1489 1495 1502 1507 1512 1518 1523 1528 1532 1535 1538 1541 1546 1548
1454 1452 1451 1448 1445 1442 1440 1438 1435 1433 1431 1430 1429 1430 1429 1431 1432 1436 1439 1443 1446 1449 1452 1458 1461 1465 1470 1474 1480 1485 1490 1496 1502 1507 1512 1517 1521 1526 1529 1532 1536 1538 1540
1456 1453 1451 1448 1445 1442 1441 1438 1435 1433 1431 1429 1429 1428 1428 1429 1431 1433 1438 1441 1444 1446 1450 1455 1459 1464 1468 1472 1476 1481 1486 1492 1496 1501 1506 1510 1515 1519 1522 1526 1529 1531 1533
1458 1452 1448 1446 1444 1442 1440 1438 1435 1432 1431 1430 1429 1427 1427 1428 1429 1432 1436 1439 1440 1444 1446 1450 1455 1458 1463 1467 1472 1478 1483 1487 1490 1495 1500 1505 1509 1513 1517 1520 1522 1523 1526
1451 1448 1446 1442 1441 1441 1440 1438 1436 1433 1431 1430 1429 1428 1428 1427 1428 1430 1433 1436 1438 1440 1443 1448 1452 1452 1457 1463 1467 1474 1477 1480 1485 1489 1495 1500 1503 1507 1510 1512 1514 1517 1518
1452 1446 1442 1438 1436 1437 1438 1437 1435 1433 1431 1430 1429 1428 1428 1428 1428 1429 1431 1433 1435 1440 1441 1445 1449 1453 1458 1461 1467 1470 1473 1478 1481 1485 1489 1495 1497 1501 1504 1506 1506 1509 1511
1448 1439 1435 1433 1431 1433 1435 1434 1433 1431 1430 1428 1427 1428 1429 1428 1428 1428 1430 1432 1435 1436 1439 1443 1446 1450 1452 1458 1462 1466 1470 1474 1477 1482 1485 1490 1491 1496 1498 1498 1500 1504 1505
1441 1434 1429 1425 1424 1428 1431 1430 1431 1429 1430 1429 1428 1427 1427 1427 1427 1428 1429 1432 1434 1436 1438 1441 1444 1447 1451 1454 1458 1462 1465 1469 1473 1477 1479 1483 1487 1490 1491 1492 1495 1498 1500
1431 1425 1422 1420 1420 1422 1425 1427 1427 1427 1427 1426 1425 1425 1426 1427 1428 1429 1429 1431 1433 1436 1438 1441 1445 1447 1450 1453 1456 1459 1462 1466 1468 1471 1475 1478 1480 1483 1484 1487 1491 1492 1492
1432 1425 1419 1419 1416 1418 1420 1422 1423 1423 1425 1426 1421 1425 1426 1427 1428 1429 1431 1432 1433 1435 1438 1441 1444 1446 1449 1451 1455 1457 1461 1464 1466 1469 1471 1474 1477 1479 1480 1482 1484 1484 1486
1435 1428 1420 1416 1417 1419 1418 1418 1417 1419 1423 1423 1417 1423 1424 1426 1428 1429 1431 1432 1433 1434 1437 1440 1443 1445 1448 1450 1454 1456 1459 1461 1462 1467 1468 1469 1472 1474 1474 1476 1478 1479 1481
1439 1432 1423 1418 1414 1415 1414 1411 1412 1416 1418 1420 1415 1420 1423 1425 1427 1427 1429 1431 1434 1436 1437 1440 1443 1446 1448 1450 1452 1453 1456 1459 1461 1464 1466 1467 1469 1470 1471 1473 1473 1476 1477
1443 1435 1428 1422 1416 1415 1412 1409 1409 1411 1414 1416 1408 1418 1423 1426 1425 1425 1429 1432 1434 1436 1438 1439 1443 1445 1447 1449 1451 1454 1456 1458 1459 1460 1462 1463 1466 1468 1470 1470 1471 1473 1474